www.pogodaiklimat.ru

Погода и климат >> Архив погоды >> Беларусь >> Слуцк


ПОГОДА в Слуцке

  • Прогноз погоды в Слуцке
  • Монитор погоды в Слуцке
  • Климат города

АРХИВ ПОГОДЫ в Слуцке

Время (UTC), дата Ветер
(напр.,м/с)
 
Видим.   Явления Облачность Т
(С)
Тd
(С)
f
(%)
Тe
(С)
Тes
(С)
Комфортность P
(гПа)
Po
(гПа)
Тmin
(С)
Tmax
(С)
R
(мм)
R24
(мм)
S
(см)
03 14.06 В 1 15 км 9/0
[Ac lent Cc]
+14.3 +12.6 90 +15 +15 1009.0 989.9
06 14.06 штиль 0 20 км 9/0
[Ac trans Cc]
+21.0 +14.5 66 +24 +29 комфорт 1009.1 990.4 +13.4
09 14.06 В 2 23 км 10/1 600 м
[Sc As trans]
+24.4 +12.0 46 +26 +32 жарко 1009.3 990.8
12 14.06 СВ 2 20 км 10/8 600 м
[Sc As op]
+21.5 +14.5 64 +24 +25 комфорт 1010.0 991.4
15 14.06 В 1 10 км слабый дождь 10/8 600 м
[Sc As op]
+18.5 +16.5 88 +20 +21 1010.7 991.8
18 14.06 В 1 8000 м слабый дождь 9/3 600 м
[Sc As op]
+16.7 +16.4 98 +18 +18 1011.2 992.2 +25.0 1
21 14.06 СВ 2 10 км слабый дождь 10/10 330 м
[St]
+16.1 +15.9 99 +16 +16 1011.7 992.6
00 15.06 СВ 1 7000 м дымка {дождь} 10/10 270 м
[St]
+15.6 +14.9 96 +16 +16 1011.0 992.0
03 15.06 В 2 7000 м дымка 10/10 400 м
[St]
+15.2 +14.3 94 +15 +15 1011.3 992.2
06 15.06 В 2 15 км 9/9 600 м
[Sc]
+16.8 +14.2 85 +17 +18 1011.3 992.3 +15.2 0.6
09 15.06 В 2 8000 м морось 10/10 400 м
[St]
+15.2 +14.3 94 +15 +15 1012.8 993.6
12 15.06 В 2 30 км {морось} 9/9 540 м
[Sc]
+16.3 +14.2 87 +16 +18 1013.2 994.1
15 15.06 СВ 2 25 км 9/9 500 м
[Sc]
+15.5 +13.3 87 +15 +16 1013.6 994.5
18 15.06 СВ 2 15 км {дождь} 9/9 720 м
[Sc]
+14.8 +13.9 94 +14 +14 1014.2 995.0 +17.8 0.3
21 15.06 штиль 0 8000 м дымка 10/10 330 м
[St]
+14.2 +13.3 94 +14 +14 1014.5 995.3
00 16.06 СВ 1 2500 м морось 10/10 270 м
[St]
+13.2 +12.6 96 +13 +13 1014.7 995.3
03 16.06 В 1 9000 м дымка {морось} 10/10 240 м
[St]
+12.6 +11.7 94 +13 +13 1014.9 995.5
06 16.06 С 2 13 км {морось} 10/10 360 м
[St]
+13.3 +12.0 92 +13 +13 1015.6 996.2 +12.6 0.3
09 16.06 В 2 15 км 10/10 450 м
[St]
+15.2 +12.6 84 +15 +15 1015.7 996.5
12 16.06 СЗ 2 18 км 9/9 800 м
[Sc]
+16.9 +12.7 76 +17 +19 1016.4 997.3
15 16.06 СВ 1 19 км 9/9 1080 м
[Sc]
+17.8 +13.5 76 +19 +20 1016.0 997.0
18 16.06 штиль 0 20 км 9/9 900 м
[Sc]
+16.2 +14.1 87 +16 +16 1016.3 997.2 +18.7
21 16.06 штиль 0 8000 м дымка 8/5 600 м
[Sc Ac trans]
+13.8 +12.9 94 +13 +13 1016.9 997.6
00 17.06 3500 м дымка н/о +12.6 +12.2 97 +12 +12 1017.3 997.9
03 17.06 штиль 0 3200 м дымка 9/9 600 м
[Sc]
+13.5 +13.1 97 +13 +13 1016.9 997.6
06 17.06 штиль 0 9000 м дымка 9/9 600 м
[Sc]
+16.4 +13.9 85 +16 +17 1017.2 998.0 +11.6
09 17.06 С 2 14 км 9/9 960 м
[Sc]
+18.0 +12.2 69 +19 +20 1017.2 998.2
12 17.06 С 1 18 км 8/3 1000 м
[Cu hum Ci fib]
+21.2 +13.2 60 +24 +34 комфорт 1016.2 997.4
15 17.06 С 2 20 км 8/0
[Ci sp]
+22.4 +13.8 58 +26 +30 жарко 1015.5 996.8
18 17.06 В 1 17 км 8/0
[Ac cast Ci]
+18.9 +14.6 76 +21 +21 комфорт 1016.3 997.3 +22.8
21 17.06 штиль 0 15 км 9/4 600 м
[Sc Ac und]
+14.7 +12.9 89 +14 +14 1016.5 997.3
00 18.06 СВ 1 13 км 9/0
[Ac und]
+14.6 +13.7 94 +15 +15 1016.5 997.3
03 18.06 СВ 1 10 км 9/0
[Ac und]
+14.4 +13.7 96 +15 +15 1016.5 997.3
06 18.06 штиль 0 10 км {ливн. осадки} 9/0
[Ac trans]
+17.2 +14.8 86 +17 +22 1017.3 998.2 +14.0 0.0
09 18.06 В 1 14 км 10/0
[Ac lent Ci sp]
+23.0 +14.2 58 +27 +35 душно 1017.0 998.2
12 18.06 В 1 16 км 3/3 600 м
[Cu hum Cc]
+27.0 +14.1 45 +29 +41 жарко 1016.3 997.8
15 18.06 штиль 0 14 км 9/4 600 м
[Cu hum Ci sp]
+26.6 +15.7 51 +30 +33 душно 1015.1 996.7
18 18.06 штиль 0 11 км 9/5 600 м
[Sc Ci sp]
+23.9 +17.7 68 +28 +28 душно 1015.9 997.2 +28.6
21 18.06 Ю 1 10 км 9/3 600 м
[Sc Ci sp]
+22.8 +15.1 62 +27 +27 душно 1016.1 997.4
00 19.06 Ю 1 10 км 9/0
[Ac trans Ci sp]
+17.4 +14.1 81 +18 +18 1016.4 997.4
03 19.06 штиль 0 10 км 9/9 600 м
[Sc]
+17.0 +15.0 88 +17 +17 1017.1 997.9
06 19.06 С 1 6000 м ливневой дождь 10/10 400 м
[Cb cap]
+18.6 +17.3 92 +21 +21 комфорт 1018.0 999.0 +16.0 4
09 19.06 З 1 25 км {ливн. осадки} 1/0
[Cc]
+24.8 +16.2 59 +28 +46 жарко 1016.7 998.0
12 19.06 З 3 30 км {ливн. осадки} 6/3 600 м
[Cu med, cong Ci sp]
+27.9 +14.5 44 +30 +38 жарко 1015.1 996.8
15 19.06 СЗ 5
{10}
20 км 3/3 600 м
[Cu med, cong]
+27.6 +13.9 43 +30 +32 жарко 1014.0 995.7
18 19.06 СЗ 3 14 км 10/0
[Ac trans Ci sp]
+22.8 +12.5 52 +26 +26 жарко 1015.1 996.4 +28.4 0.4
21 19.06 СЗ 2 14 км 3/0
[Ci sp]
+16.3 +12.9 80 +16 +16 1016.7 997.5
00 20.06 СЗ 4 13 км 3/0
[Ci sp]
+11.9 +11.3 96 +10 +10 1018.4 999.0
03 20.06 СЗ 2 15 км 1/0
[Cc]
+13.3 +11.4 88 +13 +13 1019.5 1000.1
06 20.06 СЗ 5 19 км 6/6 600 м
[Cu hum]
+19.6 +11.0 58 +21 +22 комфорт 1019.3 1000.3 +11.9
09 20.06 СЗ 7-11
{13}
20 км 3/3 600 м
[Cu hum]
+22.8 +7.6 38 +24 +27 комфорт 1018.6 999.8
12 20.06 З 7-11
{13}
25 км ясно +25.8 +4.0 24 +25 +29 комфорт 1017.4 998.7
15 20.06 СЗ 6-10
{12}
20 км ясно +26.6 +1.3 19 +25 +27 комфорт 1016.6 998.1
18 20.06 С 4
{11}
20 км ясно +22.8 +6.7 35 +23 +24 комфорт 1016.3 997.5 +27.4
21 20.06 СЗ 2 16 км ясно +15.3 +9.5 68 +15 +15 1017.7 998.4
00 21.06 штиль 0 15 км ясно +13.2 +9.7 79 +13 +13 1017.8 998.4

 

Местоположение метеостанции Слуцк (Минская область, Беларусь): широта 53.03 долгота 27.55 высота над уровнем моря 162 м.

В архиве по умолчанию представлена погода в Слуцке за последнюю неделю. Архивные данные за месяц целиком и за предыдущие месяцы, начиная с января 2011 года, Вы можете получить, выбрав интересующий диапазон дат из раскрывающегося списка и нажав кнопку "Ввод!".


*Определитесь, кто Вы:
робот инопланетянин человек

Внимание! Время в таблицах - всемирное. Для получения местного времени необходимо прибавить поправку, которая в Слуцке равна 3 ч.

Смотрите также архив погоды в соседних городах и на ближайших метеорологических станциях:

Погода в Марьиной Горке (Минская область, Беларусь) (61 км)
Погода в Столбцах (Минская область, Беларусь) (74 км)
Погода в Ганцевичах (Брестская область, Беларусь) (81 км)
Погода в Житковичах (Гомельская область, Беларусь) (93 км)
Погода в Октябре (Гомельская область, Беларусь) (99 км)
Погода в Полесской (Брестская область, Беларусь) (99 км)
Погода в Минске (город Минск, Беларусь) (100 км)
Погода в Барановичах (Брестская область, Беларусь) (106 км)
Погода в Бобруйске (Могилевская область, Беларусь) (107 км)
Погода в Кличеве (Могилевская область, Беларусь) (129 км)

Пояснения к столбцам:

Ветер - указаны скорость ветра в м/с - средняя за 10 мин, порывы в срок и между сроками (в фигурных скобках) и направление, откуда дует ветер: С - северный, СВ - северо-восточный, В - восточный, ЮВ - юго-восточный, Ю - южный, ЮЗ - юго-западный, З - западный, СЗ - северо-западный.
Видимость - горизонтальная дальность видимости в метрах или километрах. При видимости от 1 до 10 км при отсутствии осадков обычно наблюдается дымка, при ухудшении видимости до 1 км и менее - туман. В сухую погоду видимость может ухудшаться дымом, пылью или мглою.
Явления - указаны атмосферные явления, наблюдавшиеся в срок или в последний час перед сроком; фигурными скобками обозначены явления, наблюдавшиеся между сроками (за 1-3 часа до срока); квадратными скобками обозначены град или гололедные отложения с указанием их диаметра в мм.
Облачность - указаны через наклонную черту общая и нижняя облачность в баллах и высота нижней границы облаков в метрах; квадратными скобками обозначены формы облаков: Ci - перистые, Cs - перисто-слоистые, Cc - перисто-кучевые, Ac - высококучевые, As - высокослоистые, Sc - слоисто-кучевые, Ns - слоисто-дождевые, Cu - кучевые, Cb - кучево-дождевые. Подробнее классификацию облаков см. в Атласе облаков (PDF).
T - Температура воздуха - температура, измеренная на высоте 2 м над землей.
Td - Температура точки росы - температура, при понижении до которой содержащийся в воздухе водяной пар достигнет насыщения.
f - Относительная влажность воздуха - влажноcть воздуха, измеренная на высоте 2 м над землей.
Te - Эффективная температура - температура, которую ощущает одетый по сезону человек в тени. Характеристика душности погоды. При расчете учитывается влияние влажности воздуха и скорости ветра на теплоощущения человека.
Tes - Эффективная температура на солнце - температура, которую ощущает человек, с поправкой на солнечный нагрев. Характеристика знойности погоды. Зависит от высоты солнца над горизонтом, облачности и скорости ветра. Ночью, в пасмурную погоду, а также при ветре 12 м/с и более поправка равна нулю.
P - Атмосферное давление - приведенное к уровню моря атмосферное давление.
Po - Атмосферное давление - измеренное на уровне метеостанции атмосферное давление.
Tmin - Минимальная температура - минимум температуры воздуха на высоте 2 м над землей.
Tmax - Максимальная температура - максимум температуры воздуха на высоте 2 м над землей.
R - Количество осадков - Количество выпавших осадков за период времени, мм. При наведении курсора мыши на число - период времени, за который выпало указанное количество осадков.
R24 - Количество осадков - Количество выпавших осадков за 24 часа, мм.
S - Снежный покров - Высота снежного покрова, см. При наведении курсора мыши на число - состояние снежного покрова и степень покрытия местности в баллах.